Location: Misciano
(43.5000°N, 11.9500°E)
Time: 02:13:08
(UTC+00:00)

Cosmos 1470 Rocket - Pass Details

Date: 13 August 2020
Orbit: 604 x 634 km, 82.5° (Epoch: 25 September)

Event Time Altitude Azimuth Distance (km) Brightness Sun altitude
Exits shadow 19:28:09 13° 157° (SSE) 1,814 5.5 -12.1°
Maximum altitude 19:31:45 38° 92° (E) 951 4.1 -12.7°
Drops below altitude 10° 19:35:49 10° 24° (NNE) 1,985 6.3 -13.3°
Sets 19:38:09 0° 17° (NNE) 2,890 7.3 -13.6°
